Flag for U.S.A. Weather past 2 weeks in Brockton, Massachusetts, U.S.A.

Now
61 °F

Refreshingly cool.


Feels Like: 61 °F
Forecast: 50 / 65 °F
Wind: 12 mph from Northwest

Location: East Milton

Current Time: Apr 21, 2015 at 5:26:21 PM

Latest Report: Apr 21, 2015 at 4:54 PM


Visibility: N/A

Pressure: 29.63 "Hg

Humidity: 54%

Dew point: 44 °F

Location of BrocktonLocation

Historic Weather in Brockton — Graph

°F

Brockton temperature yesterday

Maximum temperature yesterday: 55 °F (at 11:54 PM)
Minimum temperature yesterday: 38 °F (at 2:54 AM)
Average temperature yesterday: 44 °F

Past Weeks' High & Low Weather Summary

 TemperatureHumidityPressure
High68 °F (Apr 13, 12:54 PM)100% (Apr 7, 2:54 AM)30.50 "Hg (Apr 7, 2:54 AM)
Low31 °F (Apr 9, 4:54 AM)16% (Apr 15, 12:54 PM)29.55 "Hg (Apr 21, 9:54 AM)
Average47 °F68%30.14 "Hg
* Reported Apr 6 3:54 PM — Apr 21 3:54 PM, Brockton, Weather by CustomWeather, © 2015

Note: Actual official high and low records may vary slightly from our data, if they occured in-between our weather recording intervals... More about our weather records

Advertising

Brockton weather history for previous 24 hours

 ConditionsComfort  
Time TempWeatherWind HumidityBarometerVisibility
3:54 PM
Tue, Apr 21
59 °FCool.14 mph64%29.62 "HgN/A
2:54 PM62 °FCool.18 mph65%29.60 "HgN/A
1:54 PM61 °FCool.20 mph70%29.59 "HgN/A
12:54 PM61 °FCool.18 mph78%29.58 "HgN/A
11:54 AM65 °FMild.16 mph68%29.57 "HgN/A
10:54 AM62 °FCool.14 mph80%29.57 "HgN/A
9:54 AM58 °FCool.7 mph97%29.55 "HgN/A
8:54 AM56 °FCool.15 mph97%29.55 "HgN/A
7:54 AM56 °FCool.14 mph100%29.56 "HgN/A
6:54 AM55 °FCool.12 mph100%29.57 "HgN/A
5:54 AM54 °FCool.14 mph100%29.58 "HgN/A
4:54 AM54 °FCool.10 mph100%29.60 "HgN/A
3:54 AM54 °FCool.10 mph100%29.60 "HgN/A
2:54 AM54 °FCool.16 mph100%29.63 "HgN/A
1:54 AM54 °FCool.16 mph100%29.66 "HgN/A
12:54 AM55 °FCool.18 mph100%29.70 "HgN/A
11:54 PM
Mon, Apr 20
55 °FCool.18 mph100%29.72 "HgN/A
10:54 PM54 °FCool.22 mph100%29.74 "HgN/A
9:54 PM53 °FCool.23 mph100%29.78 "HgN/A
8:54 PM52 °FCool.17 mph100%29.81 "HgN/A
7:54 PM51 °FCool.13 mph100%29.84 "HgN/A
6:54 PM49 °FCool.15 mph100%29.85 "HgN/A
5:54 PM48 °FCool.18 mph100%29.88 "HgN/A
Weather by CustomWeather, © 2015

See weather overviewHow to use our weather pages